Date String (YYYY-MM-DD hh:mm:ss) UTC,Instrument flags,Ambient pressure (hPa),Sample flow (lpm),Bypass flow (lpm),Sample temperature (°C),Ambient temperature (°C),ASC tube jacket temperature (°C),LED temperature (°C),Box temperature (°C),Sample RH (%),Span deviation,Mass concentration (μg/m³),Mass concentration (μg/m³),Mass concentration (μg/m³)
DateTimeUTC,F1_M11,P_M11,Q1_M11,Q2_M11,T1_M11,T2_M11,T3_M11,T4_M11,T5_M11,U1_M11,ZSPAN_M11,X0_M11,X2_M11,X1_M11
2022-05-08 12:00:00,,0816.6,5.01,0.00,23.7,22.8,00.0,32.7,25.5,22.8,0000.0,0031.79,0011.14,0004.18
2022-05-08 12:01:00,,0816.7,4.99,0.00,23.6,22.8,00.0,32.7,25.5,22.8,0000.0,0031.86,0011.06,0004.18
2022-05-08 12:02:00,,0816.7,5.00,0.00,23.6,22.8,00.0,32.7,25.5,22.8,0000.0,0032.26,0011.16,0004.18
2022-05-08 12:03:00,,0816.7,5.01,0.00,23.6,22.8,00.0,32.7,25.5,22.7,0000.0,0032.37,0011.20,0004.18
2022-05-08 12:04:00,,0816.6,5.00,0.00,23.6,22.8,00.0,32.7,25.5,22.6,0000.0,0032.23,0011.22,0004.19
2022-05-08 12:05:00,,0816.7,4.99,0.00,23.6,22.8,00.0,32.7,25.4,22.8,0000.0,0031.76,0011.21,0004.21
2022-05-08 12:06:00,,0816.7,5.01,0.00,23.6,22.7,00.0,32.7,25.4,22.9,0000.0,0031.79,0011.24,0004.23
2022-05-08 12:07:00,,0816.7,5.00,0.00,23.6,22.7,00.0,32.7,25.4,23.0,0000.0,0031.56,0011.18,0004.23
2022-05-08 12:08:00,,0816.7,5.00,0.00,23.6,22.7,00.0,32.7,25.4,22.9,0000.0,0031.87,0011.20,0004.23
2022-05-08 12:09:00,,0816.7,4.99,0.00,23.6,22.8,00.0,32.6,25.4,22.9,0000.0,0033.05,0011.12,0004.23
2022-05-08 12:10:00,,0816.7,5.01,0.00,23.6,22.8,00.0,32.6,25.4,22.8,0000.0,0033.30,0011.03,0004.22
2022-05-08 12:11:00,,0816.7,5.00,0.00,23.6,22.8,00.0,32.6,25.4,22.8,0000.0,0032.62,0011.15,0004.22
2022-05-08 12:12:00,,0816.7,5.00,0.00,23.6,22.8,00.0,32.6,25.4,22.9,0000.0,0032.37,0011.22,0004.22
2022-05-08 12:13:00,,0816.8,5.00,0.00,23.6,22.8,00.0,32.6,25.4,23.0,0000.0,0032.11,0011.12,0004.20
2022-05-08 12:14:00,,0816.8,4.99,0.00,23.6,22.7,00.0,32.6,25.4,23.0,0000.0,0031.80,0011.05,0004.21
2022-05-08 12:15:00,,0817.1,5.00,0.00,23.6,22.7,00.0,32.6,25.4,23.1,0000.0,0031.98,0010.99,0004.21
2022-05-08 12:16:00,,0817.3,4.99,0.00,23.6,22.7,00.0,32.6,25.3,23.1,0003.0,0032.57,0011.06,0004.18
2022-05-08 12:17:00,,0817.2,5.00,0.00,23.6,22.7,00.0,32.6,25.3,23.0,0003.1,0032.02,0010.94,0004.14
2022-05-08 12:18:00,,0817.0,4.99,0.00,23.5,22.7,00.0,32.6,25.3,23.1,0003.0,0031.43,0010.99,0004.12
2022-05-08 12:19:00,,0817.0,5.00,0.00,23.5,22.7,00.0,32.6,25.3,23.1,0001.8,0031.13,0010.96,0004.12
2022-05-08 12:20:00,,0817.0,5.00,0.00,23.5,22.7,00.0,32.6,25.3,23.0,0001.6,0029.78,0010.85,0004.12
2022-05-08 12:21:00,,0817.1,4.99,0.00,23.5,22.7,00.0,32.6,25.3,23.0,0000.8,0029.93,0010.89,0004.14
2022-05-08 12:22:00,,0817.1,5.00,0.00,23.5,22.7,00.0,32.6,25.3,23.0,-001.2,0030.25,0010.93,0004.16
2022-05-08 12:23:00,,0817.1,5.01,0.00,23.5,22.7,00.0,32.6,25.3,22.9,-001.3,0030.16,0010.84,0004.17
2022-05-08 12:24:00,,0817.2,5.00,0.00,23.5,22.7,00.0,32.6,25.2,23.0,-000.1,0030.43,0010.89,0004.19
2022-05-08 12:25:00,,0817.2,5.00,0.00,23.5,22.7,00.0,32.6,25.2,23.0,-000.2,0030.75,0010.85,0004.19
2022-05-08 12:26:00,,0817.3,5.01,0.00,23.5,22.7,00.0,32.6,25.2,23.0,0000.3,0030.85,0010.85,0004.17
2022-05-08 12:27:00,,0817.4,5.01,0.00,23.5,22.6,00.0,32.5,25.2,23.0,0000.7,0030.03,0010.69,0004.15
2022-05-08 12:28:00,,0817.4,4.99,0.00,23.5,22.6,00.0,32.5,25.2,23.0,0000.0,0029.92,0010.63,0004.17
2022-05-08 12:29:00,,0817.4,5.00,0.00,23.5,22.6,00.0,32.5,25.2,23.1,0000.0,0029.77,0010.52,0004.16
2022-05-08 12:30:00,,0817.4,5.00,0.00,23.5,22.6,00.0,32.5,25.3,23.1,0000.0,0030.01,0010.51,0004.17
2022-05-08 12:31:00,,0817.4,5.01,0.00,23.5,22.7,00.0,32.5,25.2,23.1,0002.2,0030.71,0010.50,0004.18
2022-05-08 12:32:00,,0817.4,4.99,0.00,23.5,22.7,00.0,32.5,25.2,23.0,0003.4,0030.19,0010.38,0004.19
2022-05-08 12:33:00,,0817.3,5.02,0.00,23.5,22.7,00.0,32.5,25.3,23.0,0002.9,0029.82,0010.31,0004.18
2022-05-08 12:34:00,,0817.3,4.99,0.00,23.5,22.7,00.0,32.5,25.3,23.0,0002.5,0029.76,0010.29,0004.16
2022-05-08 12:35:00,,0817.3,5.00,0.00,23.5,22.7,00.0,32.5,25.3,23.0,0000.5,0030.33,0010.32,0004.14
2022-05-08 12:36:00,,0817.2,5.00,0.00,23.5,22.7,00.0,32.5,25.3,23.0,0000.0,0029.97,0010.31,0004.12
2022-05-08 12:37:00,,0817.1,5.00,0.00,23.5,22.7,00.0,32.5,25.3,22.9,0000.0,0030.11,0010.27,0004.11
2022-05-08 12:38:00,,0817.1,4.99,0.00,23.5,22.7,00.0,32.5,25.3,23.0,0000.0,0030.11,0010.35,0004.12
2022-05-08 12:39:00,,0817.1,5.00,0.00,23.5,22.7,00.0,32.5,25.4,22.9,0000.0,0030.20,0010.35,0004.11
2022-05-08 12:40:00,,0817.2,5.00,0.00,23.5,22.8,00.0,32.5,25.4,22.9,0000.0,0030.63,0010.47,0004.14
2022-05-08 12:41:00,,0817.1,5.00,0.00,23.5,22.8,00.0,32.5,25.4,22.9,0000.0,0031.53,0010.52,0004.15
2022-05-08 12:42:00,,0817.1,4.99,0.00,23.6,22.8,00.0,32.5,25.4,22.8,0000.0,0031.34,0010.59,0004.15
2022-05-08 12:43:00,,0817.1,5.01,0.00,23.6,22.8,00.0,32.5,25.4,22.8,0000.0,0031.62,0010.75,0004.17
2022-05-08 12:44:00,,0817.2,5.00,0.00,23.6,22.8,00.0,32.5,25.4,22.8,0000.0,0031.67,0010.78,0004.18
2022-05-08 12:45:00,,0817.2,4.99,0.00,23.6,22.8,00.0,32.5,25.4,22.7,0000.0,0032.06,0010.88,0004.20
2022-05-08 12:46:00,,0817.2,5.01,0.00,23.6,22.8,00.0,32.5,25.5,22.6,0003.4,0033.13,0010.93,0004.22
2022-05-08 12:47:00,,0817.1,5.00,0.00,23.6,22.9,00.0,32.5,25.5,22.8,0003.1,0032.90,0010.83,0004.23
2022-05-08 12:48:00,,0817.1,5.00,0.00,23.6,22.8,00.0,32.5,25.4,23.1,0002.4,0032.67,0010.79,0004.25
2022-05-08 12:49:00,,0817.0,5.01,0.00,23.6,22.9,00.0,32.6,25.5,22.8,0000.4,0032.42,0010.79,0004.27
2022-05-08 12:50:00,,0817.0,4.99,0.00,23.6,22.9,00.0,32.6,25.4,22.7,-000.2,0032.45,0010.76,0004.27
2022-05-08 12:51:00,,0817.0,4.99,0.00,23.6,22.9,00.0,32.6,25.4,22.8,0000.9,0032.32,0010.72,0004.25
2022-05-08 12:52:00,,0817.2,5.01,0.00,23.6,22.9,00.0,32.6,25.4,22.7,0002.8,0031.80,0010.57,0004.23
2022-05-08 12:53:00,,0817.0,5.00,0.00,23.6,22.9,00.0,32.6,25.4,22.7,0002.4,0030.99,0010.53,0004.22
2022-05-08 12:54:00,,0817.0,5.00,0.00,23.6,22.9,00.0,32.6,25.4,22.9,0004.4,0030.97,0010.44,0004.19
2022-05-08 12:55:00,,0817.1,5.00,0.00,23.6,22.8,00.0,32.6,25.4,23.0,0005.8,0031.45,0010.48,0004.18
2022-05-08 12:56:00,,0817.0,5.02,0.00,23.6,22.9,00.0,32.6,25.4,22.7,0006.0,0030.56,0010.38,0004.15
2022-05-08 12:57:00,,0817.0,5.00,0.00,23.6,22.9,00.0,32.6,25.4,22.7,0005.8,0028.60,0010.34,0004.15
2022-05-08 12:58:00,,0816.9,5.00,0.00,23.6,22.9,00.0,32.6,25.4,22.6,0005.8,0029.20,0010.42,0004.13
2022-05-08 12:59:00,,0816.9,5.01,0.00,23.6,22.9,00.0,32.6,25.4,22.9,0005.6,0029.21,0010.51,0004.12
